Location: Observatoire
(46.1952°N, 5.3391°E)
Time: 22:14:56
(UTC+01:00)

A-11 Canister half - Pass Details

Date: 25 February 2026
Orbit: 1525 x 1683 km, 47.3° (Epoch: 5 March)

Event Time Altitude Azimuth Distance (km) Brightness Sun altitude
Rises 15:29:30 0° 236° (SW) 4,766 12.9 24.6°
Reaches altitude 10° 15:32:37 10° 234° (SW) 3,763 12.9 24.2°
Maximum altitude 15:42:01 70° 154° (SSE) 1,627 9.7 23.0°
Drops below altitude 10° 15:51:14 10° 73° (ENE) 3,695 10.6 21.9°
Sets 15:54:16 0° 71° (ENE) 4,677 11.0 21.5°
